Location: Alfortville
(48.8058°N, 2.4204°E)
Time: 07:08:54
(UTC+00:00)

Cosmos 1140 Rocket - Visible Passes

Search period start: 21 May 2022 00:00
Search period end: 31 May 2022 00:00
Orbit: 743 x 768 km, 74.1° (Epoch: 20 May)

Date Brightness Start Highest point End Pass type
(mag) Time Alt. Az. Time Alt. Az. Time Alt. Az.
21 May 5.1 02:58:02 10° NNW 03:03:00 40° ENE 03:07:55 10° SE visible
22 May 5.9 02:17:32 10° N 02:21:53 25° NE 02:26:13 10° ESE visible
22 May 7.2 20:24:48 10° NW 20:25:59 11° NW 20:27:11 10° NNW visible
23 May 6.4 01:37:15 10° N 01:40:38 17° NE 01:44:00 10° E visible
23 May 3.7 03:18:00 10° NNW 03:23:18 82° ENE 03:28:33 10° SSE visible
24 May 6.7 00:57:38 10° NNE 00:59:14 11° NE 01:00:51 10° NE visible
24 May 4.6 02:37:16 10° NNW 02:42:24 49° ENE 02:47:29 10° SE visible
25 May 5.5 01:56:41 10° N 02:01:21 31° NE 02:05:58 10° ESE visible
26 May 6.1 01:16:17 10° N 01:20:09 20° NE 01:24:00 10° E visible
26 May 3.5 02:57:19 10° NNW 03:02:36 79° WSW 03:07:50 10° SSE visible
27 May 6.4 00:36:15 10° NNE 00:38:49 13° NE 00:41:23 10° ENE visible
27 May 4.1 02:16:31 10° NNW 02:21:45 62° ENE 02:26:56 10° SE visible
28 May 5.0 01:35:52 10° N 01:40:46 37° ENE 01:45:38 10° SE visible
29 May 5.7 00:55:22 10° N 00:59:38 24° NE 01:03:52 10° ESE visible
29 May 3.5 02:36:41 10° NNW 02:41:53 63° WSW 02:47:02 10° S visible
30 May 6.2 00:15:08 10° N 00:18:22 16° NE 00:21:34 10° E visible
30 May 3.7 01:55:48 10° NNW 02:01:05 78° ENE 02:06:19 10° SSE visible
30 May 6.5 23:35:44 10° NNE 23:36:56 11° NE 23:38:08 10° NE visible
